Beaufort, NC

4:08 PM EST on February 24, 2017 (GMT -0500)
Smith

Weather History for KMRH - May, 2013

Change the Weather History Date:

Sunday, May 19, 2013

  Actual Average Record
Temperature  
Mean Temperature 74 °F -  
Max Temperature 80 °F 78 °F 89 °F (1965)
Min Temperature 68 °F 60 °F 44 °F (1976)
Cooling Degree Days 9    
Growing Degree Days 24 (Base 50)    
Moisture  
Dew Point 67 °F    
Average Humidity 78    
Maximum Humidity 93    
Minimum Humidity 64    
Precipitation  
Precipitation 0.00 in - - ()
Sea Level Pressure  
Sea Level Pressure 30.16 in    
Wind  
Wind Speed 5 mph (South)    
Max Wind Speed 12 mph    
Max Gust Speed 17 mph    
Visibility 10 miles    
Events      
Averages and records for this station are not official NWS values.
T = Trace of Precipitation, MM = Missing Value Source: NWS Daily Summary

Daily Weather History Graph

Daily Weather History Graph

Search for Another Location

Airport or City:

Trip Planner

Search our weather history database for the weather conditions in past years. The results will help you decide how hot, cold, wet, or windy it might be!

Date:

Astronomy

May. 19, 2013 Rise Set
Actual Time 6:00 AM EDT 8:05 PM EDT
Civil Twilight 5:32 AM EDT 8:34 PM EDT
Nautical Twilight 4:58 AM EDT 9:08 PM EDT
Astronomical Twilight 4:21 AM EDT 9:45 PM EDT
Moon 2:21 PM EDT (5/19) 2:08 AM EDT (5/19)
Length of Visible Light 15h 01m
Length of Day
14h 05m
Waxing Gibbous, 65% of the Moon is Illuminated
May 19
Waxing Gibbous
May 25
Full
May 31
Last Quarter
Jun 8
New
Jun 16
First Quarter

Hourly Weather History & Observations

Time (EDT) Temp. Heat Index Dew Point Humidity Pressure Visibility Wind Dir Wind Speed Gust Speed Precip Events Conditions
12:58 AM 72.0 °F - 66.0 °F 81% 30.16 in 10.0 mi Calm Calm - N/A   Mostly Cloudy
1:58 AM 69.1 °F - 66.0 °F 90% 30.14 in 10.0 mi Calm Calm - N/A   Partly Cloudy
2:58 AM 70.0 °F - 66.9 °F 90% 30.14 in 10.0 mi Calm Calm - N/A   Overcast
3:58 AM 70.0 °F - 66.9 °F 90% 30.14 in 10.0 mi Calm Calm - N/A   Mostly Cloudy
4:58 AM 68.0 °F - 66.0 °F 93% 30.14 in 9.0 mi SE 3.5 mph - N/A   Clear
5:58 AM 70.0 °F - 66.9 °F 90% 30.15 in 10.0 mi South 4.6 mph - N/A   Mostly Cloudy
6:58 AM 71.1 °F - 64.9 °F 81% 30.17 in 10.0 mi SSE 3.5 mph - N/A   Partly Cloudy
7:58 AM 72.0 °F - 66.9 °F 84% 30.17 in 10.0 mi SSE 5.8 mph - N/A   Mostly Cloudy
8:58 AM 75.9 °F - 68.0 °F 76% 30.19 in 10.0 mi South 6.9 mph - N/A   Clear
9:58 AM 77.0 °F - 66.9 °F 71% 30.19 in 10.0 mi SSW 5.8 mph - N/A   Clear
10:58 AM 79.0 °F - 66.9 °F 66% 30.19 in 10.0 mi South 8.1 mph - N/A   Clear
11:58 AM 79.0 °F - 66.9 °F 66% 30.19 in 10.0 mi SSW 8.1 mph - N/A   Clear
12:58 PM 79.0 °F - 66.9 °F 66% 30.17 in 10.0 mi South 11.5 mph - N/A   Clear
1:58 PM 80.1 °F 82.3 °F 66.9 °F 64% 30.15 in 10.0 mi South 10.4 mph 17.3 mph N/A   Partly Cloudy
2:58 PM 79.0 °F - 66.9 °F 66% 30.14 in 10.0 mi SSW 10.4 mph - N/A   Clear
3:58 PM 79.0 °F - 66.9 °F 66% 30.13 in 10.0 mi SSW 9.2 mph - N/A   Clear
4:58 PM 78.1 °F - 64.9 °F 64% 30.13 in 10.0 mi South 8.1 mph - N/A   Clear
5:58 PM 77.0 °F - 64.9 °F 66% 30.13 in 10.0 mi South 8.1 mph - N/A   Partly Cloudy
6:58 PM 75.0 °F - 66.0 °F 73% 30.13 in 10.0 mi South 6.9 mph - N/A   Clear
7:58 PM 73.9 °F - 68.0 °F 82% 30.14 in 10.0 mi South 8.1 mph - N/A   Scattered Clouds
8:58 PM 73.0 °F - 68.0 °F 84% 30.15 in 10.0 mi South 9.2 mph - N/A   Mostly Cloudy
9:19 PM 73.4 °F - 66.2 °F 78% 30.16 in 10.0 mi South 9.2 mph - N/A   Overcast
9:50 PM 71.6 °F - 66.2 °F 83% 30.16 in 10.0 mi South 11.5 mph - N/A   Mostly Cloudy
9:58 PM 72.0 °F - 68.0 °F 87% 30.17 in 10.0 mi South 10.4 mph - N/A   Scattered Clouds
10:58 PM 72.0 °F - 66.9 °F 84% 30.17 in 10.0 mi South 11.5 mph - N/A   Overcast
11:58 PM 71.1 °F - 66.0 °F 84% 30.17 in 10.0 mi South 11.5 mph - N/A   Overcast